W7YP Weather Reports


Display with metric or nautical units.
time (UTC)temp
F
wind
direction
speed
MPH
gust
MPH
rain 1hr
in
rain 24hr
in
rain mn
in
humidity
%
barometer
mb
20260502193807 69 131 2.0 6.0 0.00 0.00 0.00 37 1018.8
20260502193307 69 309 0.0 4.0 0.00 0.00 0.00 39 1018.9
20260502192807 69 79 0.0 2.0 0.00 0.00 0.00 39 1018.9
20260502192307 69 111 0.0 2.0 0.00 0.00 0.00 41 1018.9
20260502191801 68 67 0.0 3.0 0.00 0.00 0.00 39 1019.2
20260502191257 68 40 0.0 4.0 0.00 0.00 0.00 40 1019.2
20260502190754 68 307 0.0 4.0 0.00 0.00 0.00 40 1019.4
20260502190252 68 10 0.0 4.0 0.00 0.00 0.00 40 1019.4
20260502185753 67 349 1.0 4.0 0.00 0.00 0.00 43 1019.5
20260502185243 66 306 1.0 8.0 0.00 0.00 0.00 43 1019.5
20260502184742 66 116 2.0 8.0 0.00 0.00 0.00 41 1019.6
20260502184243 66 126 0.0 4.0 0.00 0.00 0.00 43 1019.6
20260502183743 66 100 1.0 3.0 0.00 0.00 0.00 42 1019.6
20260502183507 65 167 1.0 3.0 0.00 0.00 0.00 42 1019.6
20260502183002 65 279 0.0 3.0 0.00 0.00 0.00 43 1019.7
20260502182238 65 25 0.0 4.0 0.00 0.00 0.00 42 1019.8
20260502181733 64 110 1.0 7.0 0.00 0.00 0.00 42 1019.9
20260502181237 64 78 2.0 7.0 0.00 0.00 0.00 42 1019.9
20260502181202 64 163 0.0 5.0 0.00 0.00 0.00 43 1019.9
20260502180225 64 77 1.0 6.0 0.00 0.00 0.00 43 1020.1
20260502170420 59 211 0.0 2.0 0.00 0.00 0.00 54 1020.5
20260502163642 58 82 0.0 2.0 0.00 0.00 0.00 53 1020.6
20260502163142 57 84 0.0 2.0 0.00 0.00 0.00 55 1020.6
20260502162642 57 83 0.0 3.0 0.00 0.00 0.00 56 1020.7
20260502162142 57 82 1.0 3.0 0.00 0.00 0.00 56 1020.7
20260502161637 56 80 0.0 3.0 0.00 0.00 0.00 59 1020.7
20260502161137 56 81 0.0 3.0 0.00 0.00 0.00 58 1020.8
20260502160632 56 76 0.0 3.0 0.00 0.00 0.00 58 1020.8
20260502160132 55 76 1.0 3.0 0.00 0.00 0.00 58 1020.7
20260502152339 52 139 0.0 2.0 0.00 0.00 0.00 68 1021.0
20260502152053 51 138 0.0 1.0 0.00 0.00 0.00 69 1020.8
20260502151111 51 138 0.0 2.0 0.00 0.00 0.00 69 1020.8
20260502150604 51 139 0.0 2.0 0.00 0.00 0.00 68 1021.0
20260502150330 50 139 0.0 2.0 0.00 0.00 0.00 68 1021.0
20260502130458 38 137 0.0 0.0 0.00 0.00 0.00 91 1020.7
20260502123429 38 137 0.0 0.0 0.00 0.00 0.00 90 1020.5
20260502123152 38 137 0.0 0.0 0.00 0.00 0.00 90 1020.5
20260502122656 38 137 0.0 0.0 0.00 0.00 0.00 89 1020.4
20260502121914 38 137 0.0 0.0 0.00 0.00 0.00 89 1020.4
20260502121410 38 137 0.0 0.0 0.00 0.00 0.00 89 1020.5
20260502120859 39 137 0.0 0.0 0.00 0.00 0.00 88 1020.5
20260502120358 39 137 0.0 0.0 0.00 0.00 0.00 88 1020.5
20260502115854 39 137 0.0 0.0 0.00 0.00 0.00 88 1020.5
20260502115337 39 137 0.0 1.0 0.00 0.00 0.00 88 1020.4
20260502114835 39 137 0.0 1.0 0.00 0.00 0.00 87 1020.5
20260502114334 39 137 0.0 0.0 0.00 0.00 0.00 87 1020.5
20260502113835 39 137 0.0 0.0 0.00 0.00 0.00 87 1020.5
20260502113332 39 137 0.0 0.0 0.00 0.00 0.00 87 1020.5
20260502112821 39 137 0.0 2.0 0.00 0.00 0.00 87 1020.5
20260502112321 39 137 1.0 2.0 0.00 0.00 0.00 87 1020.4
20260502111816 39 137 0.0 2.0 0.00 0.00 0.00 87 1020.4
20260502111316 39 137 0.0 0.0 0.00 0.00 0.00 87 1020.5
20260502110816 40 137 0.0 0.0 0.00 0.00 0.00 87 1020.4
20260502110313 40 137 0.0 2.0 0.00 0.00 0.00 92 1020.4
20260502105809 40 137 0.0 2.0 0.00 0.00 0.00 87 1020.4
20260502105251 40 137 0.0 0.0 0.00 0.00 0.00 87 1020.3
20260502104751 40 137 0.0 0.0 0.00 0.00 0.00 87 1020.4
20260502104254 40 137 0.0 0.0 0.00 0.00 0.00 92 1020.3
20260502103751 40 137 0.0 0.0 0.00 0.00 0.00 87 1020.3
20260502103252 40 137 0.0 0.0 0.00 0.00 0.00 87 1020.2
20260502102753 40 137 0.0 0.0 0.00 0.00 0.00 87 1020.2
20260502102248 40 137 0.0 0.0 0.00 0.00 0.00 86 1020.2
20260502102012 40 137 0.0 0.0 0.00 0.00 0.00 86 1020.1
20260502101233 40 137 0.0 0.0 0.00 0.00 0.00 86 1019.9
20260502100733 40 137 0.0 0.0 0.00 0.00 0.00 87 1019.8
20260502100224 40 137 0.0 0.0 0.00 0.00 0.00 87 1019.8
20260502091209 41 137 0.0 0.0 0.00 0.00 0.00 84 1019.5
20260502090930 41 137 0.0 0.0 0.00 0.00 0.00 84 1019.7
20260502090421 42 137 0.0 1.0 0.00 0.00 0.00 84 1019.5
20260502071050 44 137 0.0 0.0 0.00 0.00 0.00 80 1018.9
20260502070548 44 137 0.0 0.0 0.00 0.00 0.00 80 1018.9
20260502070038 44 137 0.0 0.0 0.00 0.00 0.00 80 1018.9
20260502065536 45 137 0.0 0.0 0.00 0.00 0.00 80 1018.9
20260502065028 45 137 0.0 0.0 0.00 0.00 0.00 79 1018.9
20260502064523 45 137 0.0 0.0 0.00 0.00 0.00 80 1018.9
20260502064018 45 137 0.0 0.0 0.00 0.00 0.00 80 1018.9
20260502063519 45 137 0.0 0.0 0.00 0.00 0.00 80 1018.8
20260502063502 46 137 0.0 0.0 0.00 0.00 0.00 79 1018.8
20260502062508 46 137 0.0 0.0 0.00 0.00 0.00 78 1018.8
20260502062008 46 137 0.0 0.0 0.00 0.00 0.00 78 1018.7
20260502061509 46 137 0.0 0.0 0.00 0.00 0.00 78 1018.6
20260502061239 46 137 0.0 0.0 0.00 0.00 0.00 78 1018.7
20260502060509 46 137 0.0 0.0 0.00 0.00 0.00 78 1018.6
20260502055959 46 137 0.0 0.0 0.00 0.00 0.00 76 1018.5
20260502055457 47 137 0.0 0.0 0.00 0.00 0.00 76 1018.5
20260502054944 47 137 0.0 0.0 0.00 0.00 0.00 76 1018.5
20260502054445 47 137 0.0 0.0 0.00 0.00 0.00 76 1018.5
20260502053934 47 137 0.0 0.0 0.00 0.00 0.00 75 1018.5
20260502053432 47 137 0.0 0.0 0.00 0.00 0.00 76 1018.4
20260502053153 47 137 0.0 0.0 0.00 0.00 0.00 76 1018.4
20260502052420 48 137 0.0 0.0 0.00 0.00 0.00 76 1018.3
20260502051920 48 137 0.0 1.0 0.00 0.00 0.00 74 1018.4
20260502051417 48 137 0.0 1.0 0.00 0.00 0.00 74 1018.3
20260502050918 48 137 0.0 1.0 0.00 0.00 0.00 76 1018.3
20260502050411 48 137 0.0 1.0 0.00 0.00 0.00 75 1018.3
20260502050134 48 137 0.0 0.0 0.00 0.00 0.00 75 1018.2
20260502045857 48 137 0.0 1.0 0.00 0.00 0.00 75 1018.2
20260502044912 49 137 0.0 1.0 0.00 0.00 0.00 76 1018.1
20260502044639 49 137 0.0 1.0 0.00 0.00 0.00 74 1018.2
20260502043856 49 137 0.0 1.0 0.00 0.00 0.00 73 1018.1
20260502043357 49 137 0.0 1.0 0.00 0.00 0.00 73 1018.1
20260502042851 49 137 0.0 3.0 0.00 0.00 0.00 76 1017.9
20260502042346 49 137 0.0 3.0 0.00 0.00 0.00 75 1017.9
20260502041844 49 137 0.0 0.0 0.00 0.00 0.00 75 1017.9
20260502041342 49 137 0.0 0.0 0.00 0.00 0.00 76 1018.1
20260502040842 49 137 0.0 1.0 0.00 0.00 0.00 75 1017.9
20260502040342 50 137 0.0 1.0 0.00 0.00 0.00 74 1017.9
20260502035340 50 137 0.0 2.0 0.00 0.00 0.00 72 1017.8
20260502034823 51 137 0.0 1.0 0.00 0.00 0.00 74 1017.8
20260502034322 51 137 0.0 2.0 0.00 0.00 0.00 73 1017.7
20260502034258 51 137 0.0 2.0 0.00 0.00 0.00 73 1017.6
20260502033307 51 137 0.0 2.0 0.00 0.00 0.00 72 1017.6
20260502032753 52 137 0.0 2.0 0.00 0.00 0.00 72 1017.5
20260502032247 53 137 0.0 1.0 0.00 0.00 0.00 72 1017.5
20260502031748 53 137 0.0 1.0 0.00 0.00 0.00 72 1017.4
20260502031243 53 137 0.0 1.0 0.00 0.00 0.00 71 1017.4
20260502030743 54 137 0.0 1.0 0.00 0.00 0.00 71 1017.3
20260502030239 54 137 0.0 1.0 0.00 0.00 0.00 70 1017.3
20260502025739 55 137 0.0 1.0 0.00 0.00 0.00 69 1017.3
20260502025238 56 137 0.0 2.0 0.00 0.00 0.00 68 1017.2
20260502024739 56 137 0.0 2.0 0.00 0.00 0.00 67 1017.2
20260502024242 57 137 0.0 2.0 0.00 0.00 0.00 67 1017.2
20260502023734 58 137 0.0 0.0 0.00 0.00 0.00 66 1017.0
20260502023234 58 137 0.0 0.0 0.00 0.00 0.00 64 1017.0
20260502022734 59 137 0.0 0.0 0.00 0.00 0.00 63 1016.9
20260502022230 59 137 0.0 0.0 0.00 0.00 0.00 63 1016.9
20260502021719 60 137 0.0 1.0 0.00 0.00 0.00 62 1016.9
20260502021209 61 137 0.0 1.0 0.00 0.00 0.00 61 1016.9
20260502020705 62 137 0.0 1.0 0.00 0.00 0.00 59 1016.9
20260502020205 62 137 0.0 1.0 0.00 0.00 0.00 59 1016.9
20260502015654 63 137 0.0 1.0 0.00 0.00 0.00 59 1016.8
20260502015156 64 137 0.0 2.0 0.00 0.00 0.00 54 1016.8
20260502014657 65 137 0.0 2.0 0.00 0.00 0.00 53 1016.8
20260502014419 65 137 0.0 1.0 0.00 0.00 0.00 52 1016.8
20260502013651 66 137 0.0 1.0 0.00 0.00 0.00 51 1016.7
20260502013151 66 137 0.0 0.0 0.00 0.00 0.00 49 1016.8
20260502012651 67 137 0.0 4.0 0.00 0.00 0.00 49 1016.8
20260502012151 67 137 1.0 4.0 0.00 0.00 0.00 41 1016.8
20260502011648 67 352 0.0 2.0 0.00 0.00 0.00 39 1016.8
20260502011147 67 352 0.0 2.0 0.00 0.00 0.00 50 1016.9
20260502010641 67 332 0.0 2.0 0.00 0.00 0.00 42 1016.9
20260502010142 67 333 0.0 2.0 0.00 0.00 0.00 40 1016.9
20260502005645 67 333 0.0 1.0 0.00 0.00 0.00 40 1017.0
20260502005137 67 333 0.0 0.0 0.00 0.00 0.00 45 1017.0
20260502004637 67 333 0.0 0.0 0.00 0.00 0.00 46 1017.0
20260502004137 67 333 0.0 0.0 0.00 0.00 0.00 43 1017.0
20260502003633 67 333 0.0 2.0 0.00 0.00 0.00 46 1017.0
20260502003133 67 333 0.0 2.0 0.00 0.00 0.00 40 1017.0
20260502002855 68 333 0.0 0.0 0.00 0.00 0.00 38 1017.0
20260502002350 68 333 0.0 0.0 0.00 0.00 0.00 41 1017.0
20260502002119 68 333 0.0 0.0 0.00 0.00 0.00 43 1017.0
20260502001130 68 333 0.0 4.0 0.00 0.00 0.00 38 1017.2
20260502000626 68 333 0.0 4.0 0.00 0.00 0.00 35 1017.2
20260502000118 68 250 0.0 2.0 0.00 0.00 0.00 35 1017.0
20260501235614 68 250 0.0 2.0 0.00 0.00 0.00 33 1017.2
20260501235116 69 338 0.0 2.0 0.00 0.00 0.00 37 1017.3
20260501234835 69 317 0.0 2.0 0.00 0.00 0.00 34 1017.2
20260501234109 69 315 0.0 2.0 0.00 0.00 0.00 33 1017.3
20260501233609 69 315 0.0 4.0 0.00 0.00 0.00 33 1017.3
20260501233110 69 314 1.0 6.0 0.00 0.00 0.00 31 1017.3
20260501232607 70 89 0.0 6.0 0.00 0.00 0.00 34 1017.3
20260501232100 70 29 0.0 4.0 0.00 0.00 0.00 30 1017.3
20260501231559 70 328 1.0 4.0 0.00 0.00 0.00 30 1017.4
20260501231100 70 99 0.0 4.0 0.00 0.00 0.00 31 1017.4
20260501230826 71 23 0.0 7.0 0.00 0.00 0.00 32 1017.5
20260501230055 71 165 1.0 7.0 0.00 0.00 0.00 30 1017.4
20260501225555 71 310 1.0 5.0 0.00 0.00 0.00 31 1017.5
20260501225050 71 315 0.0 7.0 0.00 0.00 0.00 32 1017.6
20260501224540 71 0 1.0 6.0 0.00 0.00 0.00 31 1017.6
20260501224043 71 242 0.0 9.0 0.00 0.00 0.00 30 1017.6
20260501223808 71 233 2.0 9.0 0.00 0.00 0.00 31 1017.7
20260501223043 71 317 1.0 3.0 0.00 0.00 0.00 31 1017.7
20260501222534 71 304 0.0 4.0 0.00 0.00 0.00 31 1017.8
20260501222021 71 311 1.0 4.0 0.00 0.00 0.00 31 1017.9
20260501221517 71 176 0.0 9.0 0.00 0.00 0.00 30 1017.9
20260501221219 71 78 0.0 4.0 0.00 0.00 0.00 33 1017.9
20260501221103 71 204 4.0 9.0 0.00 0.00 0.00 30 1018.2
20260501220008 71 321 1.0 8.0 0.00 0.00 0.00 32 1018.1
20260501215507 71 337 0.0 8.0 0.00 0.00 0.00 32 1018.2
20260501215002 71 319 1.0 4.0 0.00 0.00 0.00 33 1018.3
20260501214505 70 205 0.0 6.0 0.00 0.00 0.00 33 1018.4
20260501214001 70 21 1.0 6.0 0.00 0.00 0.00 30 1018.4
20260501213719 70 225 1.0 6.0 0.00 0.00 0.00 32 1018.3
20260501212953 70 102 1.0 6.0 0.00 0.00 0.00 31 1018.6
20260501212453 70 345 0.0 5.0 0.00 0.00 0.00 32 1018.7
20260501211953 70 281 1.0 5.0 0.00 0.00 0.00 33 1018.8
20260501211454 69 88 0.0 6.0 0.00 0.00 0.00 33 1018.7
20260501210949 69 117 1.0 9.0 0.00 0.00 0.00 32 1018.8
20260501210443 70 31 2.0 9.0 0.00 0.00 0.00 32 1018.8
20260501205946 70 148 0.0 9.0 0.00 0.00 0.00 32 1018.9
20260501205439 70 193 3.0 9.0 0.00 0.00 0.00 32 1019.1
20260501205204 69 265 0.0 4.0 0.00 0.00 0.00 34 1018.9
20260501204441 69 18 1.0 4.0 0.00 0.00 0.00 33 1018.9
20260501203940 69 69 0.0 7.0 0.00 0.00 0.00 32 1019.1
20260501203435 69 128 0.0 7.0 0.00 0.00 0.00 33 1019.1
20260501203153 69 221 1.0 8.0 0.00 0.00 0.00 34 1019.2
20260501202430 68 103 2.0 8.0 0.00 0.00 0.00 34 1019.1
20260501201936 68 24 0.0 10.0 0.00 0.00 0.00 36 1019.1
20260501201426 67 67 0.0 10.0 0.00 0.00 0.00 33 1019.2
20260501200925 67 206 2.0 9.0 0.00 0.00 0.00 34 1019.2
20260501200421 67 152 1.0 9.0 0.00 0.00 0.00 34 1019.2
20260501200140 67 111 0.0 6.0 0.00 0.00 0.00 36 1019.2
20260501195415 67 348 1.0 4.0 0.00 0.00 0.00 35 1019.3
20260501194916 67 95 2.0 4.0 0.00 0.00 0.00 35 1019.3
20260501194419 67 269 0.0 4.0 0.00 0.00 0.00 35 1019.4
20260501194139 67 319 1.0 4.0 0.00 0.00 0.00 35 1019.4